Simultaneous Nadir Overpasses (SNOs) Predictions

Prediction of SNOs between GOES-17 and NOAA-20 Satellite Orbit:

Table of predicted SNOs for the next 14.0 days since TLE Epoch: 4/17/2021
Index Date Time (GOES-17) GOES-17 Lat,Lon NOAA-20 Lat,Lon Distance(km) Time Diff (sec)
1 04/18/2021 10:46:08 -0.03,-137.19 0.55,-139.88 306.32 80
2 04/19/2021 10:24:44 -0.03,-137.18 -0.44,-135.35 208.83 80
3 04/20/2021 22:46:40 0.02,-137.16 -0.79,-140.64 397.89 80
4 04/21/2021 22:30:36 0.02,-137.15 0.27,-136.13 117.00 80
5 04/23/2021 10:52:25 -0.01,-137.13 0.91,-141.40 485.97 80
6 04/24/2021 10:31:00 -0.02,-137.11 -0.08,-136.87 28.52 80
7 04/26/2021 22:34:13 0.02,-137.07 -0.09,-137.65 65.44 80
8 04/27/2021 22:18:09 0.02,-137.05 0.91,-133.12 448.46 80
9 04/29/2021 10:39:57 -0.02,-137.02 0.27,-138.39 156.25 80
10 04/30/2021 10:18:32 -0.02,-136.99 -0.73,-133.86 357.06 80
